| time (UTC) | temp F | wind direction | speed MPH | gust MPH | rain 1hr in | rain 24hr in | rain mn in | humidity % | barometer mb |
| 20260505022513 | 65 | 277 | 7.0 | 20.0 | 0.00 | 0.00 | 0.00 | 31 | 1000.0 |
| 20260505022008 | 65 | 238 | 7.0 | 20.0 | 0.00 | 0.00 | 0.00 | 31 | 999.8 |
| 20260505021529 | 66 | 286 | 6.0 | 17.0 | 0.00 | 0.00 | 0.00 | 31 | 999.6 |
| 20260505021007 | 66 | 238 | 7.0 | 18.0 | 0.00 | 0.00 | 0.00 | 31 | 999.6 |
| 20260505020506 | 66 | 217 | 5.0 | 18.0 | 0.00 | 0.00 | 0.00 | 31 | 999.6 |
| 20260505020011 | 67 | 294 | 4.0 | 26.0 | 0.00 | 0.00 | 0.00 | 31 | 999.5 |
| 20260505015506 | 67 | 92 | 9.0 | 26.0 | 0.00 | 0.00 | 0.00 | 31 | 999.4 |
| 20260505015003 | 68 | 274 | 9.0 | 19.0 | 0.00 | 0.00 | 0.00 | 32 | 999.2 |
| 20260505014512 | 68 | 258 | 6.0 | 15.0 | 0.00 | 0.00 | 0.00 | 35 | 998.9 |
| 20260505014005 | 68 | 277 | 4.0 | 7.0 | 0.00 | 0.00 | 0.00 | 36 | 998.6 |
| 20260505013459 | 68 | 297 | 1.0 | 10.0 | 0.00 | 0.00 | 0.00 | 36 | 998.4 |
| 20260505013009 | 69 | 320 | 3.0 | 10.0 | 0.00 | 0.00 | 0.00 | 36 | 998.2 |
| 20260505012507 | 69 | 331 | 4.0 | 14.0 | 0.00 | 0.00 | 0.00 | 36 | 997.9 |
| 20260505012004 | 69 | 282 | 5.0 | 14.0 | 0.00 | 0.00 | 0.00 | 36 | 997.6 |
| 20260505011519 | 70 | 17 | 6.0 | 14.0 | 0.00 | 0.00 | 0.00 | 36 | 997.4 |
| 20260505011005 | 70 | 275 | 1.0 | 9.0 | 0.00 | 0.00 | 0.00 | 36 | 997.2 |
| 20260505010503 | 70 | 298 | 3.0 | 14.0 | 0.00 | 0.00 | 0.00 | 36 | 997.1 |
| 20260505010015 | 71 | 107 | 4.0 | 16.0 | 0.00 | 0.00 | 0.00 | 35 | 997.1 |
| 20260505005507 | 71 | 280 | 8.0 | 14.0 | 0.00 | 0.00 | 0.00 | 35 | 997.0 |
| 20260505005004 | 71 | 34 | 1.0 | 11.0 | 0.00 | 0.00 | 0.00 | 36 | 997.0 |
| 20260505004529 | 72 | 276 | 5.0 | 11.0 | 0.00 | 0.00 | 0.00 | 36 | 996.9 |
| 20260505004008 | 72 | 280 | 4.0 | 15.0 | 0.00 | 0.00 | 0.00 | 36 | 996.5 |
| 20260505003505 | 73 | 276 | 7.0 | 15.0 | 0.00 | 0.00 | 0.00 | 35 | 996.4 |
| 20260505003013 | 73 | 12 | 6.0 | 17.0 | 0.00 | 0.00 | 0.00 | 36 | 996.2 |
| 20260505002507 | 74 | 334 | 5.0 | 18.0 | 0.00 | 0.00 | 0.00 | 35 | 996.1 |
| 20260505002004 | 75 | 317 | 7.0 | 18.0 | 0.00 | 0.00 | 0.00 | 33 | 996.0 |
| 20260505001520 | 75 | 238 | 7.0 | 13.0 | 0.00 | 0.00 | 0.00 | 32 | 995.7 |
| 20260505001006 | 75 | 182 | 5.0 | 11.0 | 0.00 | 0.00 | 0.00 | 33 | 995.6 |
| 20260505000507 | 75 | 215 | 6.0 | 12.0 | 0.00 | 0.00 | 0.00 | 32 | 995.6 |
| 20260505000034 | 75 | 271 | 3.0 | 12.0 | 0.00 | 0.00 | 0.00 | 33 | 995.5 |
| 20260504235507 | 75 | 252 | 2.0 | 10.0 | 0.00 | 0.00 | 0.00 | 33 | 995.5 |
| 20260504235004 | 76 | 277 | 3.0 | 12.0 | 0.00 | 0.00 | 0.00 | 32 | 995.5 |
| 20260504234536 | 76 | 262 | 3.0 | 15.0 | 0.00 | 0.00 | 0.00 | 32 | 995.6 |
| 20260504234009 | 76 | 150 | 5.0 | 14.0 | 0.00 | 0.00 | 0.00 | 31 | 995.7 |
| 20260504233505 | 76 | 269 | 6.0 | 19.0 | 0.00 | 0.00 | 0.00 | 31 | 995.8 |
| 20260504233031 | 76 | 226 | 9.0 | 19.0 | 0.00 | 0.00 | 0.00 | 30 | 995.8 |
| 20260504232510 | 77 | 92 | 8.0 | 23.0 | 0.00 | 0.00 | 0.00 | 30 | 995.9 |
| 20260504232005 | 77 | 230 | 10.0 | 30.0 | 0.00 | 0.00 | 0.00 | 30 | 995.9 |
| 20260504231533 | 78 | 209 | 13.0 | 30.0 | 0.00 | 0.00 | 0.00 | 29 | 996.0 |
| 20260504231008 | 78 | 307 | 12.0 | 28.0 | 0.00 | 0.00 | 0.00 | 30 | 995.9 |
| 20260504230503 | 79 | 239 | 10.0 | 28.0 | 0.00 | 0.00 | 0.00 | 29 | 995.9 |
| 20260504230024 | 79 | 230 | 11.0 | 18.0 | 0.00 | 0.00 | 0.00 | 29 | 995.9 |
| 20260504225507 | 78 | 260 | 6.0 | 22.0 | 0.00 | 0.00 | 0.00 | 30 | 995.9 |
| 20260504225006 | 78 | 265 | 5.0 | 23.0 | 0.00 | 0.00 | 0.00 | 30 | 996.0 |
| 20260504224532 | 78 | 219 | 13.0 | 23.0 | 0.00 | 0.00 | 0.00 | 29 | 996.1 |
| 20260504224003 | 78 | 248 | 8.0 | 25.0 | 0.00 | 0.00 | 0.00 | 30 | 996.1 |
| 20260504223504 | 78 | 251 | 10.0 | 26.0 | 0.00 | 0.00 | 0.00 | 29 | 996.0 |
| 20260504223022 | 78 | 257 | 9.0 | 26.0 | 0.00 | 0.00 | 0.00 | 29 | 996.1 |
| 20260504222502 | 79 | 180 | 11.0 | 26.0 | 0.00 | 0.00 | 0.00 | 29 | 996.1 |
| 20260504222007 | 79 | 195 | 9.0 | 22.0 | 0.00 | 0.00 | 0.00 | 29 | 996.0 |
| 20260504221530 | 78 | 244 | 9.0 | 20.0 | 0.00 | 0.00 | 0.00 | 30 | 996.0 |
| 20260504221003 | 78 | 297 | 8.0 | 31.0 | 0.00 | 0.00 | 0.00 | 29 | 996.1 |
| 20260504220509 | 79 | 240 | 15.0 | 31.0 | 0.00 | 0.00 | 0.00 | 28 | 996.1 |
| 20260504220026 | 80 | 229 | 14.0 | 24.0 | 0.00 | 0.00 | 0.00 | 27 | 996.2 |
| 20260504215503 | 80 | 241 | 9.0 | 24.0 | 0.00 | 0.00 | 0.00 | 28 | 996.1 |
| 20260504215009 | 80 | 263 | 9.0 | 25.0 | 0.00 | 0.00 | 0.00 | 28 | 996.2 |
| 20260504214534 | 79 | 296 | 15.0 | 25.0 | 0.00 | 0.00 | 0.00 | 27 | 996.3 |
| 20260504214004 | 80 | 173 | 10.0 | 22.0 | 0.00 | 0.00 | 0.00 | 27 | 996.4 |
| 20260504213511 | 80 | 237 | 10.0 | 23.0 | 0.00 | 0.00 | 0.00 | 27 | 996.3 |
| 20260504213030 | 80 | 227 | 8.0 | 23.0 | 0.00 | 0.00 | 0.00 | 26 | 996.4 |
| 20260504212515 | 81 | 246 | 7.0 | 23.0 | 0.00 | 0.00 | 0.00 | 26 | 996.4 |
| 20260504212010 | 80 | 246 | 10.0 | 25.0 | 0.00 | 0.00 | 0.00 | 26 | 996.4 |
| 20260504211530 | 79 | 244 | 10.0 | 25.0 | 0.00 | 0.00 | 0.00 | 27 | 996.6 |
| 20260504211006 | 80 | 182 | 8.0 | 25.0 | 0.00 | 0.00 | 0.00 | 27 | 996.8 |
| 20260504210513 | 79 | 212 | 12.0 | 25.0 | 0.00 | 0.00 | 0.00 | 26 | 996.8 |
| 20260504210027 | 79 | 165 | 13.0 | 26.0 | 0.00 | 0.00 | 0.00 | 26 | 996.8 |
| 20260504205503 | 79 | 217 | 11.0 | 26.0 | 0.00 | 0.00 | 0.00 | 27 | 996.8 |
| 20260504205008 | 79 | 225 | 13.0 | 26.0 | 0.00 | 0.00 | 0.00 | 26 | 996.8 |
| 20260504204604 | 80 | 173 | 8.0 | 18.0 | 0.00 | 0.00 | 0.00 | 27 | 996.8 |
| 20260504204013 | 80 | 276 | 7.0 | 20.0 | 0.00 | 0.00 | 0.00 | 27 | 996.9 |
| 20260504203509 | 79 | 194 | 10.0 | 27.0 | 0.00 | 0.00 | 0.00 | 26 | 996.9 |
| 20260504203030 | 80 | 173 | 12.0 | 27.0 | 0.00 | 0.00 | 0.00 | 26 | 996.9 |
| 20260504202509 | 79 | 194 | 9.0 | 27.0 | 0.00 | 0.00 | 0.00 | 27 | 996.9 |
| 20260504202014 | 79 | 273 | 16.0 | 28.0 | 0.00 | 0.00 | 0.00 | 28 | 997.0 |
| 20260504201531 | 78 | 235 | 6.0 | 28.0 | 0.00 | 0.00 | 0.00 | 27 | 997.1 |
| 20260504201008 | 79 | 265 | 18.0 | 31.0 | 0.00 | 0.00 | 0.00 | 26 | 997.3 |
| 20260504200512 | 79 | 126 | 9.0 | 31.0 | 0.00 | 0.00 | 0.00 | 27 | 997.3 |
| 20260504200016 | 79 | 244 | 17.0 | 24.0 | 0.00 | 0.00 | 0.00 | 26 | 997.4 |
| 20260504195509 | 79 | 276 | 14.0 | 26.0 | 0.00 | 0.00 | 0.00 | 27 | 997.4 |
| 20260504195010 | 79 | 304 | 14.0 | 27.0 | 0.00 | 0.00 | 0.00 | 26 | 997.5 |
| 20260504194514 | 78 | 189 | 12.0 | 32.0 | 0.00 | 0.00 | 0.00 | 27 | 997.4 |
| 20260504194006 | 79 | 256 | 12.0 | 32.0 | 0.00 | 0.00 | 0.00 | 26 | 997.5 |
| 20260504193510 | 78 | 219 | 11.0 | 24.0 | 0.00 | 0.00 | 0.00 | 26 | 997.6 |
| 20260504193022 | 78 | 222 | 9.0 | 30.0 | 0.00 | 0.00 | 0.00 | 27 | 997.6 |
| 20260504192511 | 78 | 215 | 9.0 | 30.0 | 0.00 | 0.00 | 0.00 | 27 | 997.7 |
| 20260504192014 | 78 | 245 | 9.0 | 24.0 | 0.00 | 0.00 | 0.00 | 26 | 997.7 |
| 20260504191529 | 78 | 342 | 10.0 | 25.0 | 0.00 | 0.00 | 0.00 | 27 | 997.6 |
| 20260504191008 | 77 | 170 | 13.0 | 25.0 | 0.00 | 0.00 | 0.00 | 26 | 997.7 |
| 20260504190509 | 77 | 253 | 11.0 | 22.0 | 0.00 | 0.00 | 0.00 | 26 | 997.8 |
| 20260504190035 | 77 | 235 | 10.0 | 23.0 | 0.00 | 0.00 | 0.00 | 26 | 997.8 |
| 20260504185511 | 78 | 223 | 6.0 | 23.0 | 0.00 | 0.00 | 0.00 | 27 | 997.7 |
| 20260504185012 | 78 | 192 | 6.0 | 26.0 | 0.00 | 0.00 | 0.00 | 26 | 997.8 |
| 20260504184520 | 77 | 217 | 12.0 | 26.0 | 0.00 | 0.00 | 0.00 | 26 | 997.9 |
| 20260504184012 | 77 | 262 | 9.0 | 24.0 | 0.00 | 0.00 | 0.00 | 27 | 997.8 |
| 20260504183514 | 77 | 105 | 10.0 | 24.0 | 0.00 | 0.00 | 0.00 | 27 | 997.9 |
| 20260504183022 | 77 | 219 | 8.0 | 21.0 | 0.00 | 0.00 | 0.00 | 27 | 997.9 |
| 20260504182509 | 77 | 248 | 11.0 | 20.0 | 0.00 | 0.00 | 0.00 | 27 | 998.0 |
| 20260504182013 | 78 | 236 | 7.0 | 22.0 | 0.00 | 0.00 | 0.00 | 26 | 998.1 |
| 20260504181530 | 77 | 247 | 12.0 | 24.0 | 0.00 | 0.00 | 0.00 | 26 | 998.0 |
| 20260504181009 | 78 | 236 | 15.0 | 24.0 | 0.00 | 0.00 | 0.00 | 26 | 998.1 |
| 20260504180514 | 77 | 150 | 5.0 | 23.0 | 0.00 | 0.00 | 0.00 | 27 | 998.1 |
| 20260504180033 | 77 | 190 | 10.0 | 23.0 | 0.00 | 0.00 | 0.00 | 27 | 998.1 |
| 20260504175508 | 77 | 289 | 9.0 | 18.0 | 0.00 | 0.00 | 0.00 | 27 | 998.1 |
| 20260504175011 | 76 | 192 | 9.0 | 25.0 | 0.00 | 0.00 | 0.00 | 27 | 998.1 |
| 20260504174523 | 76 | 247 | 7.0 | 25.0 | 0.00 | 0.00 | 0.00 | 27 | 998.1 |
| 20260504174009 | 76 | 163 | 9.0 | 25.0 | 0.00 | 0.00 | 0.00 | 27 | 998.3 |
| 20260504173509 | 76 | 134 | 8.0 | 22.0 | 0.00 | 0.00 | 0.00 | 27 | 998.3 |
| 20260504173025 | 76 | 186 | 9.0 | 21.0 | 0.00 | 0.00 | 0.00 | 27 | 998.3 |
| 20260504172509 | 76 | 263 | 8.0 | 19.0 | 0.00 | 0.00 | 0.00 | 27 | 998.4 |
| 20260504172015 | 76 | 213 | 12.0 | 22.0 | 0.00 | 0.00 | 0.00 | 26 | 998.4 |
| 20260504171537 | 75 | 247 | 11.0 | 23.0 | 0.00 | 0.00 | 0.00 | 27 | 998.5 |
| 20260504171010 | 75 | 236 | 8.0 | 23.0 | 0.00 | 0.00 | 0.00 | 26 | 998.6 |
| 20260504170502 | 75 | 254 | 9.0 | 22.0 | 0.00 | 0.00 | 0.00 | 27 | 998.8 |
| 20260504151006 | 71 | 186 | 11.0 | 21.0 | 0.00 | 0.00 | 0.00 | 30 | 1000.4 |
| 20260504150503 | 71 | 249 | 8.0 | 19.0 | 0.00 | 0.00 | 0.00 | 31 | 1000.5 |
| 20260504141002 | 67 | 245 | 7.0 | 15.0 | 0.00 | 0.00 | 0.00 | 36 | 1001.1 |
| 20260504140502 | 67 | 204 | 5.0 | 13.0 | 0.00 | 0.00 | 0.00 | 37 | 1001.2 |
| 20260504130509 | 58 | 232 | 1.0 | 6.0 | 0.00 | 0.00 | 0.00 | 56 | 1001.9 |
| 20260504110502 | 45 | 223 | 1.0 | 2.0 | 0.00 | 0.00 | 0.00 | 80 | 1002.1 |
| 20260504100502 | 44 | 250 | 0.0 | 2.0 | 0.00 | 0.00 | 0.00 | 81 | 1002.2 |
| 20260504082003 | 46 | 232 | 0.0 | 2.0 | 0.00 | 0.00 | 0.00 | 82 | 1003.3 |
| 20260504081527 | 46 | 232 | 1.0 | 2.0 | 0.00 | 0.00 | 0.00 | 82 | 1003.4 |
| 20260504081003 | 46 | 232 | 0.0 | 2.0 | 0.00 | 0.00 | 0.00 | 81 | 1003.4 |
| 20260504080503 | 46 | 232 | 1.0 | 2.0 | 0.00 | 0.00 | 0.00 | 81 | 1003.3 |
| 20260504050506 | 50 | 250 | 1.0 | 2.0 | 0.00 | 0.00 | 0.00 | 76 | 1004.6 |
| 20260504045505 | 51 | 250 | 1.0 | 2.0 | 0.00 | 0.00 | 0.00 | 75 | 1004.7 |
| 20260504045009 | 51 | 250 | 0.0 | 2.0 | 0.00 | 0.00 | 0.00 | 74 | 1004.7 |
| 20260504044538 | 51 | 250 | 1.0 | 2.0 | 0.00 | 0.00 | 0.00 | 74 | 1004.7 |
| 20260504044005 | 51 | 250 | 1.0 | 2.0 | 0.00 | 0.00 | 0.00 | 75 | 1004.7 |
| 20260504043509 | 51 | 250 | 0.0 | 2.0 | 0.00 | 0.00 | 0.00 | 74 | 1004.7 |
| 20260504043016 | 51 | 250 | 0.0 | 2.0 | 0.00 | 0.00 | 0.00 | 74 | 1004.6 |
| 20260504042506 | 51 | 250 | 0.0 | 2.0 | 0.00 | 0.00 | 0.00 | 73 | 1004.7 |
| 20260504042010 | 52 | 250 | 0.0 | 2.0 | 0.00 | 0.00 | 0.00 | 73 | 1004.7 |
| 20260504041515 | 52 | 250 | 0.0 | 2.0 | 0.00 | 0.00 | 0.00 | 72 | 1004.7 |
| 20260504041006 | 52 | 250 | 0.0 | 2.0 | 0.00 | 0.00 | 0.00 | 71 | 1004.6 |
| 20260504040507 | 52 | 250 | 0.0 | 2.0 | 0.00 | 0.00 | 0.00 | 71 | 1004.6 |
| 20260504040017 | 52 | 250 | 0.0 | 2.0 | 0.00 | 0.00 | 0.00 | 72 | 1004.8 |
| 20260504035507 | 53 | 250 | 0.0 | 2.0 | 0.00 | 0.00 | 0.00 | 70 | 1004.7 |
| 20260504035011 | 53 | 250 | 0.0 | 2.0 | 0.00 | 0.00 | 0.00 | 70 | 1004.6 |
| 20260504034516 | 53 | 250 | 0.0 | 2.0 | 0.00 | 0.00 | 0.00 | 70 | 1004.7 |
| 20260504034007 | 53 | 250 | 0.0 | 2.0 | 0.00 | 0.00 | 0.00 | 70 | 1004.7 |
| 20260504033508 | 53 | 250 | 0.0 | 2.0 | 0.00 | 0.00 | 0.00 | 69 | 1004.8 |
| 20260504033022 | 54 | 250 | 0.0 | 2.0 | 0.00 | 0.00 | 0.00 | 68 | 1004.7 |
| 20260504032507 | 54 | 250 | 0.0 | 2.0 | 0.00 | 0.00 | 0.00 | 68 | 1004.7 |
| 20260504032015 | 54 | 250 | 0.0 | 2.0 | 0.00 | 0.00 | 0.00 | 68 | 1004.8 |
| 20260504031520 | 54 | 250 | 0.0 | 2.0 | 0.00 | 0.00 | 0.00 | 67 | 1004.8 |
| 20260504031006 | 55 | 250 | 0.0 | 2.0 | 0.00 | 0.00 | 0.00 | 66 | 1004.8 |
| 20260504030511 | 55 | 250 | 0.0 | 2.0 | 0.00 | 0.00 | 0.00 | 66 | 1004.8 |
| 20260504030036 | 55 | 250 | 0.0 | 2.0 | 0.00 | 0.00 | 0.00 | 65 | 1004.8 |
| 20260504025507 | 55 | 250 | 0.0 | 2.0 | 0.00 | 0.00 | 0.00 | 66 | 1004.8 |
| 20260504025010 | 56 | 250 | 0.0 | 2.0 | 0.00 | 0.00 | 0.00 | 64 | 1004.7 |
| 20260504024521 | 56 | 250 | 0.0 | 2.0 | 0.00 | 0.00 | 0.00 | 63 | 1004.7 |
| 20260504024010 | 56 | 250 | 0.0 | 2.0 | 0.00 | 0.00 | 0.00 | 63 | 1004.7 |
| 20260504023511 | 56 | 250 | 0.0 | 2.0 | 0.00 | 0.00 | 0.00 | 62 | 1004.7 |
| 20260504023028 | 56 | 250 | 0.0 | 2.0 | 0.00 | 0.00 | 0.00 | 62 | 1004.7 |